Location: Staunton
(38.1490°N, 79.0720°W)
Time: 14:34:31
(UTC-04:00)

ISS - Pass Details

Date: 12 July 2019
Orbit: 409 x 418 km, 51.6° (Epoch: 20 July)

Event Time Altitude Azimuth Distance (km) Brightness Sun altitude
Rises 05:01:03 0° 319° (NW) 2,341 0.0 -10.9°
Reaches altitude 10° 05:04:12 10° 352° (N) 1,476 -0.5 -10.4°
Maximum altitude 05:05:36 12° 17° (NNE) 1,352 -0.3 -10.2°
Drops below altitude 10° 05:07:01 10° 43° (NE) 1,474 0.6 -10.0°
Sets 05:10:09 0° 76° (ENE) 2,332 1.4 -9.5°
